Location: ????????
(55.4000°N, 39.1167°E)
Time: 06:12:53
(UTC+00:00)

Cosmos 2181 Rocket - Pass Details

Date: 19 May 2025
Orbit: 952 x 1013 km, 82.9° (Epoch: 15 June)

Event Time Altitude Azimuth Distance (km) Brightness Sun altitude
Exits shadow 19:13:55 - 182° (S) 2,985 6.0 -10.0°
Reaches altitude 10° 19:14:36 10° 181° (S) 2,732 5.8 -10.1°
Maximum altitude 19:20:51 77° 97° (E) 1,026 4.1 -10.5°
Drops below altitude 10° 19:27:16 10° 13° (NNE) 2,790 7.2 -10.9°
Sets 19:29:49 0° 13° (NNE) 3,751 7.9 -11.1°
